CAPE
732 944 1029 1162 1140 1119 1131 1067 1026 1076 1148 1105 1269 1527 1141 1157 1101 822 294 136 0 0 6 0 0 0 0 0 1 0 0 0 0 20 22 6 0 0 0 0 0 0 0
861 1026 995 994 1149 1259 1165 1174 1098 1239 1373 1451 1376 1274 1123 1140 1330 922 518 486 133 0 3 18 1 0 0 0 0 0 0 0 6 13 19 33 35 42 6 0 0 0 0
1053 1180 1230 1217 1150 1279 1353 1261 1208 1320 1420 1310 1320 1237 1158 1285 1304 1008 750 687 565 153 11 0 21 26 8 0 25 20 0 14 33 24 15 27 56 47 38 7 0 0 0
1220 1391 1448 1462 1506 1295 1308 1370 1380 1452 1554 1527 1327 1357 1443 1389 1240 1059 986 908 921 703 339 139 0 2 3 0 4 0 0 8 46 74 70 71 48 51 39 3 0 0 0
1294 1552 1617 1620 1694 1680 1554 1425 1354 1392 1437 1448 1502 1459 1607 1636 1430 1325 1247 1221 1037 932 779 446 96 22 35 8 11 53 16 57 99 89 106 86 32 21 14 1 0 0 0
1521 1640 1753 1868 1947 1951 1907 1765 1636 1525 1567 1565 1488 1385 1351 1430 1628 1655 1530 1365 1031 943 800 559 252 66 72 111 63 192 37 41 83 79 73 48 42 24 5 0 0 0 0
1768 1866 1948 1946 2133 2178 2119 2047 1929 1804 1695 1646 1602 1472 1443 1562 1680 1564 1539 1353 930 1005 915 1016 688 105 55 161 181 198 95 75 67 56 39 35 14 15 3 4 10 30 16
1976 2005 2168 2230 2194 2297 2358 2298 2174 2042 1960 1865 1792 1681 1584 1655 1754 1729 1922 395 271 742 1095 1155 361 217 15 163 232 154 64 47 49 12 16 33 54 25 40 55 36 11 23
2039 2173 2302 2442 2403 2468 2483 2527 2454 2302 2207 2161 1990 2032 2170 2231 2390 2566 2390 288 1257 1528 1097 755 469 255 47 258 149 21 32 60 35 34 23 38 42 26 19 16 24 1 0
2240 2306 2464 2607 2551 2534 2577 2522 2567 2574 2371 2309 2431 2385 2433 2473 2510 2625 967 959 2094 1527 824 418 355 146 248 395 193 37 29 24 15 38 57 20 8 0 0 0 0 0 0
2095 2401 2453 2645 2734 2635 2555 2542 2642 2673 2641 2479 2605 2708 2837 2874 2855 2386 836 2063 1605 868 358 261 201 282 405 184 90 119 39 6 33 29 6 0 0 0 0 0 0 0 0
1691 1902 2326 2480 2760 2705 2604 2582 2661 2680 2888 2765 2782 2845 2972 3148 2835 1449 2203 1611 812 340 115 83 129 152 8 1 0 0 52 9 3 0 0 0 0 0 0 0 0 0 0
1530 1645 1820 2217 2547 2626 2593 2614 2687 2792 3026 3561 2850 2895 2703 2658 2207 1746 1072 662 326 153 3 7 200 24 0 0 0 0 0 0 0 0 0 0 0 0 0 0 0 0 0
1300 1530 1624 1891 2370 2524 2618 2705 2690 2877 2855 2756 2479 2175 2257 1854 1476 1041 645 401 156 4 85 202 41 0 0 0 0 0 0 0 0 0 0 0 0 0 0 0 0 0 0
1222 1259 1460 1802 2406 2600 2609 2693 2619 2591 2308 2208 1876 1447 1464 1177 1015 662 578 389 288 174 282 326 104 39 0 0 0 0 0 0 0 0 0 0 0 0 0 0 0 0 0
1782 2123 2137 2118 2259 2389 2609 2603 2650 2268 1535 912 792 351 728 594 742 488 365 360 357 440 513 431 101 19 0 0 0 0 0 0 0 0 0 0 0 0 0 0 0 0 0
2482 2177 1933 1864 2056 2225 2531 2341 2529 1349 979 495 532 616 634 541 364 443 414 455 469 471 281 103 15 0 0 0 0 0 0 0 0 0 0 0 0 0 0 0 0 0 0
1400 1962 1865 1768 1777 1906 2034 1590 867 472 100 104 544 404 450 376 445 515 406 192 145 81 8 0 0 0 0 0 0 0 0 0 0 0 0 0 0 0 0 0 0 0 0
94 282 815 236 546 761 401 2 3 22 144 396 384 317 342 274 383 377 156 33 0 0 0 0 0 0 0 0 0 0 0 0 0 0 0 0 0 0 0 0 0 0 0
82 121 133 263 307 57 26 66 247 425 529 566 420 323 306 342 346 156 31 0 0 0 0 0 0 0 0 0 0 0 0 0 0 0 0 0 0 0 0 0 0 0 0
459 534 563 468 393 351 404 438 462 469 462 353 338 180 68 118 174 116 78 24 17 0 0 0 0 0 0 0 0 0 0 2 0 0 0 0 0 0 0 0 0 0 0
672 761 729 671 602 515 489 409 396 316 257 162 121 80 7 9 50 100 44 29 9 1 0 0 0 0 0 0 2 2 4 3 0 0 0 0 0 0 0 0 0 0 0
2 8 156 513 524 346 236 133 50 31 21 17 37 42 15 3 0 13 4 0 0 0 0 0 0 0 3 4 14 1 2 1 0 0 0 0 0 0 0 0 0 0 0
102 76 25 2 1 44 103 62 178 212 152 96 86 93 80 22 0 0 0 1 0 0 0 0 0 1 5 4 5 4 3 1 0 0 0 0 0 0 0 0 0 0 0
13 27 18 8 12 43 38 38 57 24 45 73 92 76 60 5 15 7 0 0 0 0 0 0 0 0 0 0 0 2 3 2 0 0 0 0 0 0 0 0 0 0 0
26 25 14 47 55 11 6 18 6 2 29 32 56 59 45 27 29 10 0 0 0 0 0 0 0 0 0 0 0 0 1 0 0 0 0 0 0 0 0 0 0 0 0
CIN
-480 -406 -335 -296 -239 -193 -147 -161 -198 -164 -131 -151 -118 -69 -106 -82 -69 -97 -125 -145 -0 -0 -274 -0 -0 -0 -0 -12 -47 -0 -0 -0 -0 -55 -45 -30 -0 -0 -0 -0 -0 -0 -0
-510 -425 -411 -364 -298 -231 -195 -193 -235 -189 -149 -109 -90 -97 -85 -90 -63 -97 -90 -88 -121 -0 -290 -266 -140 -0 -0 -0 -0 -0 -0 -0 -28 -22 -47 -53 -57 -35 -42 -0 -0 -0 -0
-521 -439 -410 -385 -365 -304 -234 -225 -251 -204 -167 -160 -116 -101 -111 -96 -87 -119 -90 -84 -71 -50 -18 -0 -223 -172 -162 -0 -116 -65 -0 -34 -37 -29 -36 -44 -31 -42 -45 -41 -24 -0 -0
-523 -456 -415 -392 -374 -376 -299 -253 -257 -240 -211 -176 -165 -131 -99 -90 -97 -67 -49 -45 -38 -28 -33 -44 -0 -80 -183 -0 -127 -0 -0 -45 -23 -27 -29 -29 -59 -60 -32 -59 -0 -0 -0
-561 -486 -454 -393 -350 -328 -303 -281 -268 -284 -264 -243 -176 -161 -121 -78 -62 -61 -45 -28 -32 -31 -26 -19 -55 -167 -173 -121 -69 -31 -33 -23 -10 -34 -25 -33 -40 -38 -42 -26 -0 -0 -0
-539 -544 -480 -403 -349 -341 -296 -284 -252 -292 -268 -254 -221 -199 -185 -135 -80 -29 -13 -12 -22 -35 -23 -44 -45 -23 -133 -77 -79 -26 -14 -19 -10 -15 -30 -26 -24 -35 -60 -0 -0 -0 -0
-572 -525 -461 -409 -358 -332 -289 -258 -268 -270 -279 -295 -235 -222 -202 -142 -96 -65 -38 -57 -135 -29 -1 -0 -6 -19 -115 -67 -46 -35 -64 -38 -42 -51 -32 -24 -34 -33 -62 -81 -45 -18 -25
-564 -524 -464 -420 -404 -345 -254 -245 -245 -259 -262 -300 -258 -210 -188 -153 -112 -65 -13 -352 -157 -51 -0 -0 -26 -58 -130 -66 -26 -13 -10 -13 -22 -37 -54 -54 -46 -43 -64 -52 -60 -54 -31
-565 -522 -482 -428 -404 -340 -320 -267 -211 -205 -236 -233 -226 -169 -142 -117 -47 -9 -3 -125 -42 -0 -0 -16 -30 -29 -101 -35 -12 -3 -22 -13 -33 -54 -56 -31 -73 -60 -86 -42 -32 -6 -3
-570 -554 -523 -463 -407 -366 -352 -293 -238 -193 -214 -194 -139 -139 -107 -88 -44 -10 -221 -91 -0 -0 -25 -86 -42 -63 -42 -9 -11 -11 -16 -1 -30 -44 -20 -32 -39 -0 -0 -0 -0 -0 -0
-566 -560 -526 -453 -425 -411 -355 -286 -258 -217 -165 -150 -113 -95 -80 -51 -21 -14 -149 -26 -20 -69 -120 -104 -78 -43 -7 -8 -6 -0 -6 -23 -43 -40 -25 -0 -0 -0 -0 -0 -0 -0 -0
-471 -496 -485 -485 -422 -376 -338 -278 -217 -174 -103 -96 -65 -60 -37 -32 -5 -97 -13 -83 -133 -154 -162 -145 -102 -47 -31 -5 -0 -0 -28 -12 -10 -0 -0 -0 -0 -0 -0 -0 -0 -0 -0
-353 -428 -447 -451 -402 -382 -328 -259 -184 -140 -68 -17 -42 -43 -50 -27 -25 -10 -152 -206 -219 -176 -47 -190 -15 -77 -0 -0 -0 -0 -0 -0 -0 -0 -0 -0 -0 -0 -0 -0 -0 -0 -0
-361 -359 -446 -522 -416 -433 -343 -245 -191 -99 -90 -71 -82 -87 -46 -54 -52 -64 -190 -198 -214 -116 -127 -25 -58 -15 -0 -0 -0 -0 -0 -0 -0 -0 -0 -0 -0 -0 -0 -0 -0 -0 -0
-258 -388 -391 -445 -389 -305 -239 -197 -136 -99 -104 -108 -79 -86 -58 -103 -122 -184 -161 -179 -166 -141 -28 -11 -25 -46 -0 -0 -0 -0 -0 -0 -0 -0 -0 -0 -0 -0 -0 -0 -0 -0 -0
-279 -275 -256 -293 -273 -242 -254 -195 -63 -23 -53 -37 -3 -88 -97 -41 -62 -151 -167 -136 -85 -24 -2 -5 -35 -48 -0 -0 -0 -0 -0 -0 -0 -0 -0 -0 -0 -0 -0 -0 -0 -0 -0
-80 -147 -191 -207 -230 -191 -65 -88 -15 -33 -10 -14 -17 -169 -45 -93 -119 -181 -125 -78 -30 -7 -22 -43 -42 -0 -0 -0 -0 -0 -0 -0 -0 -0 -0 -0 -0 -0 -0 -0 -0 -0 -0
-4 -2 -50 -54 -62 -35 -0 -0 -69 -71 -37 -106 -7 -89 -112 -104 -75 -18 -33 -60 -59 -84 -54 -0 -0 -0 -0 -0 -0 -0 -0 -0 -0 -0 -0 -0 -0 -0 -0 -0 -0 -0 -0
-33 -2 -1 -67 -0 -66 -48 -1 -72 -86 -331 -41 -51 -72 -35 -69 -32 -22 -49 -93 -0 -0 -0 -0 -0 -0 -0 -0 -0 -0 -0 -0 -0 -0 -0 -0 -0 -0 -0 -0 -0 -0 -0
-26 -0 -30 -2 -78 -13 -53 -352 -91 -7 -9 -14 -14 -22 -51 -30 -21 -54 -100 -0 -0 -0 -0 -0 -0 -0 -0 -0 -0 -0 -0 -0 -0 -0 -0 -0 -0 -0 -0 -0 -0 -0 -0
-15 -19 -37 -43 -31 -53 -116 -74 -69 -88 -34 -20 -19 -40 -61 -85 -70 -67 -50 -62 -56 -2 -0 -0 -0 -0 -0 -0 -0 -0 -0 -0 -0 -0 -0 -0 -0 -0 -0 -0 -0 -0 -0
-55 -7 -12 -18 -23 -31 -22 -34 -24 -16 -34 -53 -48 -71 -49 -112 -82 -61 -59 -56 -51 -13 -0 -0 -0 -0 -0 -0 -1 -1 -2 -2 -0 -0 -0 -0 -0 -0 -0 -0 -0 -0 -0
-39 -63 -115 -55 -37 -48 -54 -44 -68 -59 -56 -52 -56 -42 -30 -9 -0 -40 -33 -0 -0 -0 -0 -0 -0 -0 -3 -0 -0 -0 -0 -1 -0 -0 -0 -0 -0 -0 -0 -0 -0 -0 -0
-58 -99 -118 -168 -176 -146 -87 -59 -17 -14 -30 -25 -17 -17 -5 -4 -0 -0 -1 -0 -0 -0 -0 -0 -0 -0 -0 -0 -2 -0 -1 -0 -0 -0 -0 -0 -0 -0 -0 -0 -0 -0 -0
-79 -51 -64 -57 -49 -35 -44 -45 -9 -9 -23 -51 -24 -27 -14 -7 -14 -9 -0 -0 -0 -0 -0 -0 -0 -0 -0 -0 -0 -1 -0 -0 -0 -0 -0 -0 -0 -0 -0 -0 -0 -0 -0
-54 -40 -31 -13 -5 -8 -28 -47 -14 -0 -28 -31 -35 -31 -15 -7 -10 -15 -0 -0 -0 -0 -0 -0 -0 -0 -0 -0 -0 -0 -0 -0 -0 -0 -0 -0 -0 -0 -0 -0 -0 -0 -0
Wind_Speed
19 20 16 15 14 13 12 17 16 15 14 13 9 10 13 16 17 18 21 22 nan nan nan nan nan nan nan nan nan nan nan nan nan nan nan nan nan nan nan nan nan nan nan
17 19 21 19 17 14 10 16 16 14 15 14 10 9 14 15 18 22 23 20 24 nan nan nan nan nan nan nan nan nan nan nan nan nan nan nan nan nan nan nan nan nan nan
17 20 21 19 19 18 12 15 13 13 14 12 12 14 13 14 18 21 24 24 26 27 nan nan nan nan nan nan nan nan nan nan nan nan nan nan nan nan nan nan nan nan nan
16 18 20 20 17 21 16 16 12 13 14 14 15 15 15 18 17 20 23 23 24 26 28 33 nan nan nan nan nan nan nan nan nan nan nan nan nan nan nan nan nan nan nan
20 19 21 18 15 16 16 17 14 15 14 16 20 19 19 24 20 21 22 23 25 25 25 31 nan nan nan nan nan nan nan nan nan nan 31 nan nan nan nan nan nan nan nan
18 17 20 24 25 22 18 19 22 17 18 21 21 23 24 21 25 29 29 27 19 21 28 30 33 nan nan 35 nan 35 nan nan nan nan nan nan nan nan nan nan nan nan nan
16 14 20 25 24 21 21 21 22 22 24 23 25 27 25 26 28 33 45 48 34 28 30 33 34 33 nan 33 34 35 nan nan nan nan nan nan nan nan nan nan nan nan nan
22 22 21 26 26 23 24 22 22 28 29 30 30 31 29 29 38 42 47 34 28 29 31 37 41 38 nan 37 40 39 nan nan nan nan nan nan nan nan nan nan nan nan nan
26 28 29 29 23 24 23 24 25 28 31 33 37 33 33 35 44 43 39 29 29 31 33 39 44 41 nan 43 41 nan nan nan nan nan nan nan nan nan nan nan nan nan nan
37 29 31 29 27 29 29 29 31 32 30 37 40 37 39 42 50 51 45 32 34 34 35 40 47 45 50 52 47 nan nan nan nan nan nan nan nan nan nan nan nan nan nan
36 35 33 29 29 31 34 37 38 37 39 41 44 42 42 46 53 57 42 39 36 40 42 43 45 54 56 53 nan 47 nan nan nan nan nan nan nan nan nan nan nan nan nan
39 38 32 34 37 39 37 40 40 42 42 45 49 48 50 52 53 54 37 44 46 44 45 nan 51 58 nan nan nan nan nan nan nan nan nan nan nan nan nan nan nan nan nan
45 45 50 39 43 46 42 44 45 46 52 51 53 53 53 53 54 53 40 44 50 46 nan nan 57 nan nan nan nan nan nan nan nan nan nan nan nan nan nan nan nan nan nan
46 45 55 46 56 62 55 49 53 53 56 62 55 56 55 52 53 44 34 44 49 nan nan 58 nan nan nan nan nan nan nan nan nan nan nan nan nan nan nan nan nan nan nan
54 65 60 55 59 60 65 58 49 56 59 64 66 69 58 58 48 41 45 49 52 52 60 56 54 nan nan nan nan nan nan nan nan nan nan nan nan nan nan nan nan nan nan
63 67 68 67 66 67 73 68 77 68 72 72 66 56 42 51 37 46 51 57 56 63 50 38 38 nan nan nan nan nan nan nan nan nan nan nan nan nan nan nan nan nan nan
69 74 70 71 67 67 71 73 73 79 97 85 54 66 38 28 42 47 54 62 64 62 44 41 nan nan nan nan nan nan nan nan nan nan nan nan nan nan nan nan nan nan nan
84 84 78 73 68 74 81 72 74 74 71 63 22 35 47 49 54 49 61 60 51 nan nan nan nan nan nan nan nan nan nan nan nan nan nan nan nan nan nan nan nan nan nan
nan 90 88 76 65 80 80 nan nan nan 75 62 38 46 45 52 56 65 63 nan nan nan nan nan nan nan nan nan nan nan nan nan nan nan nan nan nan nan nan nan nan nan nan
nan 6 30 41 44 nan nan nan 55 34 47 45 38 40 45 46 49 48 nan nan nan nan nan nan nan nan nan nan nan nan nan nan nan nan nan nan nan nan nan nan nan nan nan
17 8 16 21 27 32 44 44 41 48 40 34 31 32 nan 42 57 50 nan nan nan nan nan nan nan nan nan nan nan nan nan nan nan nan nan nan nan nan nan nan nan nan nan
19 22 26 29 32 33 35 39 44 44 47 49 47 nan nan nan nan 51 nan nan nan nan nan nan nan nan nan nan nan nan nan nan nan nan nan nan nan nan nan nan nan nan nan
nan nan 26 32 38 43 45 42 nan nan nan nan nan nan nan nan nan nan nan nan nan nan nan nan nan nan nan nan nan nan nan nan nan nan nan nan nan nan nan nan nan nan nan
31 nan nan nan nan nan 45 nan 51 44 37 nan nan nan nan nan nan nan nan nan nan nan nan nan nan nan nan nan nan nan nan nan nan nan nan nan nan nan nan nan nan nan nan
nan nan nan nan nan nan nan nan nan nan nan nan nan nan nan nan nan nan nan nan nan nan nan nan nan nan nan nan nan nan nan nan nan nan nan nan nan nan nan nan nan nan nan
nan nan nan nan nan nan nan nan nan nan nan nan nan nan nan nan nan nan nan nan nan nan nan nan nan nan nan nan nan nan nan nan nan nan nan nan nan nan nan nan nan nan nan
Wind_Direction
348 332 326 314 309 289 270 262 270 281 274 265 280 293 298 307 311 327 332 328 nan nan nan nan nan nan nan nan nan nan nan nan nan nan nan nan nan nan nan nan nan nan nan
334 328 325 325 315 307 270 258 266 280 254 264 265 282 298 318 326 330 334 345 354 nan nan nan nan nan nan nan nan nan nan nan nan nan nan nan nan nan nan nan nan nan nan
321 327 323 327 316 313 284 265 262 263 256 255 264 280 285 307 325 331 331 343 350 352 nan nan nan nan nan nan nan nan nan nan nan nan nan nan nan nan nan nan nan nan nan
316 322 334 329 321 314 302 276 261 243 246 251 261 268 286 307 318 324 326 335 338 346 337 337 nan nan nan nan nan nan nan nan nan nan nan nan nan nan nan nan nan nan nan
315 345 346 329 312 303 305 285 250 250 248 256 265 271 289 301 304 317 318 327 332 332 343 334 nan nan nan nan nan nan nan nan nan nan 304 nan nan nan nan nan nan nan nan
305 350 319 319 320 304 303 287 278 252 251 260 277 282 284 281 305 317 312 307 318 320 337 336 342 nan nan 352 nan 336 nan nan nan nan nan nan nan nan nan nan nan nan nan
302 301 312 304 310 304 293 283 285 280 267 265 268 280 283 286 312 315 300 310 325 341 347 346 352 344 nan 338 337 335 nan nan nan nan nan nan nan nan nan nan nan nan nan
282 287 292 299 305 295 288 287 277 271 277 269 267 281 281 292 297 301 317 330 331 331 336 353 349 343 nan 331 328 323 nan nan nan nan nan nan nan nan nan nan nan nan nan
275 281 289 301 294 298 302 298 289 279 269 268 273 275 282 289 300 306 301 321 331 329 347 342 344 340 nan 326 321 nan nan nan nan nan nan nan nan nan nan nan nan nan nan
282 286 295 295 291 295 302 296 290 288 280 266 268 270 280 287 298 301 303 311 322 324 329 336 342 342 336 330 325 nan nan nan nan nan nan nan nan nan nan nan nan nan nan
284 280 278 276 288 286 283 280 282 280 281 280 274 271 279 282 285 299 316 310 316 320 327 331 330 332 333 327 nan 316 nan nan nan nan nan nan nan nan nan nan nan nan nan
279 280 268 276 272 273 277 274 274 268 270 273 276 273 268 271 281 294 315 308 313 313 320 nan 325 332 nan nan nan nan nan nan nan nan nan nan nan nan nan nan nan nan nan
265 265 280 250 267 269 268 271 272 273 265 264 270 269 271 269 271 281 305 298 304 310 nan nan 316 nan nan nan nan nan nan nan nan nan nan nan nan nan nan nan nan nan nan
258 266 268 277 280 280 276 266 268 266 264 264 263 263 262 262 260 266 284 287 295 nan nan 308 nan nan nan nan nan nan nan nan nan nan nan nan nan nan nan nan nan nan nan
258 263 257 261 268 270 265 271 260 258 260 261 257 256 254 251 257 289 292 293 294 301 306 307 304 nan nan nan nan nan nan nan nan nan nan nan nan nan nan nan nan nan nan
259 259 260 259 252 260 265 256 243 244 255 256 258 246 240 250 276 291 291 297 296 297 303 306 308 nan nan nan nan nan nan nan nan nan nan nan nan nan nan nan nan nan nan
259 267 259 255 249 255 254 256 250 247 245 234 227 265 300 290 289 293 290 298 300 293 290 300 nan nan nan nan nan nan nan nan nan nan nan nan nan nan nan nan nan nan nan
269 244 248 244 239 238 243 245 248 260 264 253 279 275 274 301 270 280 294 287 288 nan nan nan nan nan nan nan nan nan nan nan nan nan nan nan nan nan nan nan nan nan nan
nan 240 225 237 241 236 244 nan nan nan 259 279 275 264 273 284 296 302 297 nan nan nan nan nan nan nan nan nan nan nan nan nan nan nan nan nan nan nan nan nan nan nan nan
nan 206 235 231 239 nan nan nan 277 283 266 268 275 281 280 280 288 286 nan nan nan nan nan nan nan nan nan nan nan nan nan nan nan nan nan nan nan nan nan nan nan nan nan
332 293 247 256 262 264 256 264 277 272 278 284 275 270 nan 281 294 299 nan nan nan nan nan nan nan nan nan nan nan nan nan nan nan nan nan nan nan nan nan nan nan nan nan
261 271 267 267 267 266 262 264 270 276 279 278 273 nan nan nan nan 285 nan nan nan nan nan nan nan nan nan nan nan nan nan nan nan nan nan nan nan nan nan nan nan nan nan
nan nan 274 276 272 271 272 272 nan nan nan nan nan nan nan nan nan nan nan nan nan nan nan nan nan nan nan nan nan nan nan nan nan nan nan nan nan nan nan nan nan nan nan
254 nan nan nan nan nan 267 nan 267 270 280 nan nan nan nan nan nan nan nan nan nan nan nan nan nan nan nan nan nan nan nan nan nan nan nan nan nan nan nan nan nan nan nan
nan nan nan nan nan nan nan nan nan nan nan nan nan nan nan nan nan nan nan nan nan nan nan nan nan nan nan nan nan nan nan nan nan nan nan nan nan nan nan nan nan nan nan
nan nan nan nan nan nan nan nan nan nan nan nan nan nan nan nan nan nan nan nan nan nan nan nan nan nan nan nan nan nan nan nan nan nan nan nan nan nan nan nan nan nan nan